This demonstration page uses our WeatherBlox Daily Observations layout. Learn more.

Left ArrowRight Arrow

39.51506, -84.39828

Hourly Observations for March 18, 2020

Temp ( °F °C ) Dew Point ( °F °C ) Humidity (%) Winds ( mph kmh ) Pressure ( in mb ) Visibility ( mi km ) Precip ( " mm )
12:15 am 00:15 Clear 33 0.3 31 -0.3 96 96 N 3 6 30.37 1029 10 16.0934 0 0
12:35 am 00:35 Clear 31 -0.4 30 -0.9 96 96 N 6 9 30.36 1028 10 16.0934 0 0
12:55 am 00:55 Clear 32 0.2 31 -0.6 94 94 Calm 30.37 1029 10 16.0934 0 0
1:15 am 01:15 Clear 33 0.6 32 -0.2 94 94 Calm 30.36 1028 10 16.0934 0 0
1:35 am 01:35 Clear with Mist and Fog 32 0.1 31 -0.3 97 97 Calm 30.39 1029 7 11.26538 0 0
1:55 am 01:55 Clear with Mist and Fog 30 -1.2 29 -1.4 99 99 Calm 30.39 1029 7 11.26538 0 0
2:15 am 02:15 Clear 32 0 31 -0.5 96 96 Calm 30.39 1029 10 16.0934 0 0
2:35 am 02:35 Clear 32 -0.2 31 -0.6 97 97 Calm 30.38 1029 10 16.0934 0 0
2:55 am 02:55 Clear 32 -0.2 31 -0.7 96 96 Calm 30.39 1029 10 16.0934 0 0
3:15 am 03:15 Clear 32 -0.2 31 -0.6 97 97 Calm 30.39 1029 7 11.26538 0 0
3:35 am 03:35 Clear with Mist and Fog 31 -0.8 30 -1.2 97 97 Calm 30.38 1029 7 11.26538 0 0
3:55 am 03:55 Clear 30 -0.9 30 -1.3 97 97 Calm 30.38 1029 7 11.26538 0 0
4:15 am 04:15 Clear with Mist and Fog 31 -0.7 30 -1.1 97 97 Calm 30.36 1028 7 11.26538 0 0
4:35 am 04:35 Clear with Mist and Fog 30 -1 30 -1.3 98 98 N 3 6 30.36 1028 7 11.26538 0 0
4:55 am 04:55 Clear with Mist and Fog 31 -0.8 30 -1.1 98 98 N 5 7 30.34 1027 7 11.26538 0 0
5:15 am 05:15 Clear with Mist and Fog 30 -1.2 29 -1.5 98 98 NNE 5 7 30.33 1027 7 11.26538 0 0
5:35 am 05:35 Clear 31 -0.4 30 -1.1 95 95 Calm 30.33 1027 7 11.26538 0 0
5:55 am 05:55 Clear with Mist and Fog 31 -0.6 30 -1.1 96 96 N 3 6 30.34 1027 5 8.0467 0 0
6:15 am 06:15 Clear with Mist and Fog 31 -0.7 30 -1 98 98 Calm 30.34 1027 4 6.43736 0 0
6:35 am 06:35 Clear with Mist and Fog 31 -0.6 30 -0.9 98 98 NNE 3 6 30.33 1027 7 11.26538 0 0
6:55 am 06:55 Clear with Mist and Fog 31 -0.8 30 -1.2 97 97 Calm 30.33 1027 7 11.26538 0 0
7:15 am 07:15 Clear 33 0.4 32 0.1 98 98 NNE 3 6 30.32 1027 7 11.26538 0 0
7:35 am 07:35 Clear 32 0.2 31 -0.4 96 96 Calm 30.32 1027 7 11.26538 0 0
7:55 am 07:55 Sunny with Mist and Fog 32 0.2 32 -0.1 98 98 NNE 3 6 30.31 1027 7 11.26538 0 0
8:15 am 08:15 Partly Cloudy with Mist and Fog 33 0.5 32 0.1 97 97 NNE 3 6 30.3 1026 5 8.0467 0 0
8:35 am 08:35 Cloudy 35 1.6 34 0.9 95 95 N 3 6 30.3 1026 7 11.26538 0 0
8:55 am 08:55 Cloudy 37 2.8 35 1.5 91 91 NNE 3 6 30.31 1026 10 16.0934 0 0
9:15 am 09:15 Cloudy 38 3.3 36 2 91 91 NE 6 9 30.29 1026 10 16.0934 0 0
9:35 am 09:35 Cloudy 39 3.7 36 2.1 89 89 NE 3 6 30.29 1026 10 16.0934 0 0
9:55 am 09:55 Cloudy with Light Rain 39 4 36 2.4 89 89 NNE 3 6 30.28 1026 10 16.0934 0 0
10:15 am 10:15 Cloudy 40 4.3 37 2.6 89 89 Calm 30.29 1026 10 16.0934 0 0
10:35 am 10:35 Cloudy with Light Rain 40 4.6 38 3.3 91 91 ENE 3 6 30.28 1025 5 8.0467 0 0
10:55 am 10:55 Cloudy with Light Rain 40 4.6 38 3.4 92 92 ENE 5 7 30.27 1025 7 11.26538 0 0
11:15 am 11:15 Cloudy with Light Rain 41 5.2 40 4.3 94 94 NE 5 7 30.26 1025 5 8.0467 0 0
11:35 am 11:35 Cloudy 42 5.3 40 4.5 95 95 NNE 6 9 30.25 1024 7 11.26538 0 0
12:35 pm 12:35 Cloudy with Mist and Fog 43 6.2 42 5.5 95 95 ENE 7 11 30.21 1023 5 8.0467 0 0
12:55 pm 12:55 Cloudy with Mist and Fog 45 7 44 6.4 96 96 ENE 5 7 30.2 1023 5 8.0467 0 0
1:15 pm 13:15 Cloudy with Mist and Fog 45 7.2 44 6.7 97 97 NE 3 6 30.18 1022 3.5 5.63269 0 0
1:35 pm 13:35 Cloudy with Rain 46 8 46 7.5 97 97 E 3 6 30.16 1021 2.5 4.02335 0 0
1:55 pm 13:55 Cloudy with Light Rain 47 8.4 46 7.8 96 96 ESE 3 6 30.15 1021 3.5 5.63269 0 0
2:15 pm 14:15 Cloudy with Rain 47 8.4 46 7.9 97 97 E 3 6 30.14 1021 2 3.21868 0 0
2:35 pm 14:35 Cloudy with Rain 47 8.5 47 8.1 97 97 Calm 30.13 1020 1.75 2.816345 0 0
2:55 pm 14:55 Cloudy with Rain 48 8.7 47 8.3 97 97 Calm 30.11 1020 2.5 4.02335 0 0
3:15 pm 15:15 Cloudy with Heavy Rain 48 8.9 47 8.5 97 97 Calm 30.1 1019 1.75 2.816345 0 0
3:35 pm 15:35 Cloudy with Nearby Thunderstorms 48 9.1 48 8.8 98 98 Calm 30.09 1019 2.5 4.02335 0 0
3:55 pm 15:55 Cloudy with Rain 49 9.3 48 9 98 98 Calm 30.08 1019 2 3.21868 0 0
4:15 pm 16:15 Cloudy with Rain 49 9.6 49 9.4 99 99 SE 3 6 30.07 1018 2 3.21868 0 0
4:35 pm 16:35 Cloudy with Rain 50 10 50 9.8 99 99 SE 7 11 30.05 1018 2.5 4.02335 0 0
4:55 pm 16:55 Cloudy with Light Rain 51 10.5 50 10.2 98 98 SSE 3 6 30.04 1017 5 8.0467 0 0
5:15 pm 17:15 Cloudy with Rain 51 10.6 51 10.3 98 98 Calm 30.03 1017 1.75 2.816345 0 0
5:35 pm 17:35 Cloudy with Heavy Rain 51 10.6 51 10.4 99 99 Calm 30.02 1017 1.75 2.816345 0 0
5:55 pm 17:55 Cloudy with Heavy Rain 51 10.8 51 10.7 99 99 Calm 30 1016 1.25 2.011675 0 0
6:15 pm 18:15 Cloudy with Light Rain 52 10.9 51 10.8 99 99 Calm 30.01 1016 1.5 2.41401 0 0
6:35 pm 18:35 Cloudy with Rain 52 11.3 52 11.2 99 99 SSW 3 6 30.01 1016 1.5 2.41401 0 0
6:55 pm 18:55 Cloudy with Light Rain 53 11.4 53 11.4 100 100 S 3 6 30.01 1016 1.25 2.011675 0 0
7:15 pm 19:15 Cloudy with Rain 52 11.3 52 11.3 100 100 Calm 30 1016 3 4.82802 0 0
7:35 pm 19:35 Cloudy with Mist and Fog 52 11.2 52 11.2 100 100 Calm 30.01 1016 4 6.43736 0 0
7:55 pm 19:55 Cloudy with Mist and Fog 52 11.1 52 11.1 100 100 Calm 30.01 1016 3.5 5.63269 0 0
8:15 pm 20:15 Cloudy with Mist and Fog 52 11.3 52 11.3 100 100 Calm 30.01 1016 5 8.0467 0 0
8:35 pm 20:35 Cloudy with Mist and Fog 53 11.5 53 11.4 99 99 SSW 5 7 30.02 1016 7 11.26538 0 0
8:55 pm 20:55 Cloudy with Mist and Fog 53 11.7 53 11.6 99 99 SW 5 7 30.01 1016 5 8.0467 0 0
9:15 pm 21:15 Cloudy with Mist and Fog 53 11.8 53 11.8 100 100 SW 6 9 30.01 1016 5 8.0467 0 0
9:35 pm 21:35 Cloudy with Light Rain 54 12.2 54 12.1 99 99 SW 5 7 30.02 1017 5 8.0467 0 0
9:55 pm 21:55 Cloudy with Mist and Fog 56 13.5 56 13.5 100 100 WSW 8 13 30.02 1017 3 4.82802 0 0
10:15 pm 22:15 Cloudy with Light Rain 57 13.9 57 13.8 99 99 WSW 5 7 30.02 1017 2 3.21868 0 0
10:35 pm 22:35 Cloudy with Drizzle 57 13.8 57 13.7 99 99 WSW 6 9 30.03 1017 4 6.43736 0 0
10:55 pm 22:55 Cloudy with Light Rain 57 13.7 56 13.5 99 99 W 5 7 30.04 1017 3.5 5.63269 0 0
11:15 pm 23:15 Cloudy with Light Rain 56 13.6 56 13.4 99 99 WSW 5 7 30.04 1017 3 4.82802 0 0
11:35 pm 23:35 Cloudy with Mist and Fog 57 13.7 56 13.5 99 99 W 6 9 30.05 1018 5 8.0467 0 0
11:55 pm 23:55 Cloudy 57 13.7 56 13.4 98 98 W 8 13 30.06 1018 7 11.26538 0 0

Powered by AerisWeather